This is the latest recevied weather packets stored in our database for station/object M0OAB-1. If no packets are shown the sender has not sent any weather packets the latest 10 day(s).
| Time | Temp. | Humidity | Pressure | Rain* | Wind** | Luminosity | Snow |
|---|---|---|---|---|---|---|---|
| 1778192044 | 9.44° C | 78% | 1002.7 hPa | 0 mm | - | - | - |
| 1778191443 | 10° C | 77% | 1002.7 hPa | 0 mm | - | - | - |
| 1778191084 | 10° C | 77% | 1002.7 hPa | 0 mm | - | - | - |
| 1778190964 | 10° C | 77% | 1002.7 hPa | 0 mm | - | - | - |
| 1778189883 | 10° C | 76% | 1002.6 hPa | 0 mm | - | - | - |
| 1778189763 | 10° C | 76% | 1002.7 hPa | 0 mm | - | - | - |
| 1778188925 | 10° C | 76% | 1002.6 hPa | 0 mm | - | - | - |
| 1778188446 | 10° C | 75% | 1002.6 hPa | 0 mm | - | - | - |
| 1778187485 | 10° C | 74% | 1002.6 hPa | 0 mm | - | - | - |
| 1778186885 | 10.56° C | 74% | 1002.5 hPa | 0 mm | - | - | - |
| 1778185325 | 10.56° C | 72% | 1002.4 hPa | 0 mm | - | - | - |
| 1778185086 | 10.56° C | 72% | 1002.3 hPa | 0 mm | - | - | - |
| 1778184845 | 10.56° C | 72% | 1002.2 hPa | 0 mm | - | - | - |
| 1778184126 | 11.11° C | 71% | 1002 hPa | 0 mm | - | - | - |
| 1778183286 | 11.67° C | 71% | 1002 hPa | 0 mm | - | - | - |
| 1778183165 | 11.67° C | 71% | 1001.8 hPa | 0 mm | - | - | - |
| 1778180165 | 12.22° C | 64% | 1001.8 hPa | 0 mm | - | - | - |
| 1778179805 | 12.22° C | 63% | 1001.8 hPa | 0 mm | - | - | - |
| 1778179205 | 12.78° C | 63% | 1001.8 hPa | 0 mm | - | - | - |
| 1778178485 | 12.78° C | 62% | 1001.7 hPa | 0 mm | - | - | - |
| 1778177406 | 13.33° C | 62% | 1001.6 hPa | 0 mm | - | - | - |
| 1778175365 | 14.44° C | 60% | 1001.4 hPa | 0 mm | - | - | - |
| 1778174886 | 14.44° C | 61% | 1001.3 hPa | 0 mm | - | - | - |
| 1778173446 | 15° C | 60% | 1001.4 hPa | 0 mm | - | - | - |
| 1778172725 | 15° C | 57% | 1001.2 hPa | 0 mm | - | - | - |
* Rain latest hour (hover to see other rain measurements)
** Current wind speed in m/s (hover to see current wind gust speed)